Regional Weather Roundup
Issued by NWS

Home | Current Version | Previous Version | Text Only | Print | Product List | Glossary Off
Versions: 1 2 3 4 5 6 7 8 9 10 11 12 13 14 15 16 17 18 19 20 21 22 23 24 25 26 27 28 29 30 31 32 33 34 35 36 37 38 39 40 41 42 43 44 45 46 47 48 49 50

000
ASUS43 KBIS 012010
RWRND

NORTH DAKOTA REGIONAL WEATHER ROUNDUP
NATIONAL WEATHER SERVICE BISMARCK ND
300 PM CDT SAT AUG 01 2015

NOTE: "FAIR" INDICATES FEW OR NO CLOUDS BELOW 12,000 FEET WITH NO
SIGNIFICANT WEATHER AND/OR OBSTRUCTIONS TO VISIBILITY.


NDZ001>003-009>011-017-012100-
NORTHWEST NORTH DAKOTA

CITY           SKY/WX    TMP DP  RH WIND       PRES   REMARKS
WILLISTON      SUNNY     92  35  13 SW9       29.82F
MINOT          SUNNY     89  48  24 SW12G20   29.82F
MINOT AFB      SUNNY     90  52  27 W8        29.81F
$$

NDZ018>021-031>035-040>046-012100-
SOUTHWEST NORTH DAKOTA

CITY           SKY/WX    TMP DP  RH WIND       PRES   REMARKS
BISMARCK       SUNNY     88  59  37 N9        29.84S
DICKINSON      SUNNY     92  42  17 NW6       29.88F
GARRISON         N/A     83  62  49 S5        29.85F
HETTINGER ARPT SUNNY     92  38  15 NW12G23   29.92F
$$

NDZ004>008-012>016-024-026-027-054-012100-
NORTHEAST NORTH DAKOTA

CITY           SKY/WX    TMP DP  RH WIND       PRES   REMARKS
GRAND FORKS    MOSUNNY   84  54  35 SW8       29.80F
GRND FRKS AFB  SUNNY     84  58  40 SW6       29.81F
DEVILS LAKE    SUNNY     84  55  37 SW8       29.82F
$$

NDZ022-023-025-028>030-036>039-047>053-012100-
SOUTHEAST NORTH DAKOTA

CITY           SKY/WX    TMP DP  RH WIND       PRES   REMARKS
FARGO          MOSUNNY   86  58  38 SE8       29.82F
JAMESTOWN      SUNNY     85  62  46 S9        29.83F
$$



USA.gov is the U.S. government's official web portal to all federal, state and local government web resources and services.